Regional Weather Roundup
Issued by NWS

Home | Current Version | Previous Version | Graphics & Text | Print | Product List | Glossary On
Versions: 1 2 3 4 5 6 7 8 9 10 11 12 13 14 15 16 17 18 19 20 21 22 23 24 25 26 27 28 29 30 31 32 33 34 35 36 37 38 39 40 41 42 43 44 45 46 47 48 49 50
000
ASUS43 KMKX 062311
RWRWI

WISCONSIN REGIONAL WEATHER ROUNDUP
NATIONAL WEATHER SERVICE MILWAUKEE/SULLIVAN WI
500 PM CST TUE DEC 06 2016

NOTE: "FAIR" INDICATES FEW OR NO CLOUDS BELOW 12,000 FEET WITH NO
SIGNIFICANT WEATHER AND/OR OBSTRUCTIONS TO VISIBILITY.

WIZ001-002-006>008-014>016-023>028-070000-
NORTHWEST WISCONSIN

CITY           SKY/WX    TMP DP  RH WIND       PRES   REMARKS
SUPERIOR ARPT  FLURRIES  24  16  73 SW18      29.54S WCI  10
ASHLAND        CLOUDY    23  15  71 S17G30    29.59S WCI   9
HAYWARD        FLURRIES  21  14  74 SW12      29.60S WCI   9
SIREN          FLURRIES  23  15  71 SW16G23   29.62R WCI  10
CUMBERLAND     FLURRIES  21  14  73 SW18      29.64R WCI   6
RICE LAKE      FLURRIES  22  16  76 SW17      29.68R WCI   8
CHETEK         FLURRIES  22  16  78 SW10G18   29.68R WCI  11
LADYSMITH      FLURRIES  21  16  79 SW14G22   29.68R WCI   8
EAU CLAIRE     CLOUDY    22  16  78 SW15G22   29.72S WCI   9
MENOMONIE      CLOUDY    23  17  75 SW16G23   29.72R WCI  10
NEW RICHMOND   FLURRIES  23  14  68 SW24G30   29.69R WCI   7
OSCEOLA        FLURRIES  24  15  70 SW20G32   29.72R WCI   9
$$

WIZ003>005-009-010-017-018-070000-
NORTH CENTRAL WISCONSIN

CITY           SKY/WX    TMP DP  RH WIND       PRES   REMARKS
MANITOWISH WTR FLURRIES  20  16  86 SW14      29.59R WCI   6
ARBOR VITAE    CLOUDY    22  16  78 SW13G20   29.61R WCI  10
WOODRUFF       CLOUDY    22  16  78 SW13G20   29.61R WCI  10
RHINELANDER    FLURRIES  22  17  81 W16G28    29.63R WCI   8
EAGLE RIVER    FLURRIES  22  17  78 W15G22    29.60R WCI   9
LAND O LAKES   CLOUDY    23  17  76 SW10G28   29.60R WCI  13
PHILLIPS       FLURRIES  19  15  83 SW13G20   29.63R WCI   6
TOMAHAWK       CLOUDY    20  15  82 SW6       29.66R WCI  12
MEDFORD        FLURRIES  20  14  78 SW14G22   29.67S WCI   6
MERRILL        CLOUDY    21  16  79 W12       29.69R WCI   9
$$

WIZ029-030-035-036-043>047-070000-
CENTRAL WISCONSIN

CITY           SKY/WX    TMP DP  RH WIND       PRES   REMARKS
WAUSAU         CLOUDY    22  14  71 W13G24    29.70R WCI  10
MOSINEE        CLOUDY    21  18  86 W17G28    29.72R WCI   7
MARSHFIELD     CLOUDY    22  14  71 W17G29    29.71R WCI   8
STEVENS POINT  CLOUDY    22  14  73 W17G25    29.74R WCI   7
WAUPACA        CLOUDY    30  22  70 W18G25    29.74R WCI  18
WAUTOMA        CLOUDY    26  19  74 SW18G30   29.76R WCI  13
WISC RAPIDS    CLOUDY    24  16  71 W15G21    29.76R WCI  11
CAMP DOUGLAS   NOT AVBL
$$

WIZ011>013-019>022-031-037>040-048>050-070000-
NORTHEAST WISCONSIN

CITY           SKY/WX    TMP DP  RH WIND       PRES   REMARKS
ANTIGO         CLOUDY    22  17  82 W20G25    29.67R WCI   7
SHAWANO        MOCLDY    32  22  66 W9G21     29.69R WCI  24
OCONTO         CLOUDY    33  25  71 SW12      29.67R WCI  24
STURGEON BAY   CLOUDY    35  30  82 SW9       29.67R WCI  28
GREEN BAY      PTCLDY    34  23  64 W15       29.70R WCI  24
MANITOWOC      PTCLDY    34  27  75 SW13      29.71R WCI  25
APPLETON       MOCLDY    32  21  64 W17G23    29.69R WCI  21
CLINTONVILLE   PTCLDY    30  19  64 W18G24    29.71R WCI  18
OSHKOSH        CLEAR     30  19  63 W12G17    29.72R WCI  20
$$

WIZ032>034-041-042-053>061-070000-
SOUTHWEST WISCONSIN

CITY           SKY/WX    TMP DP  RH WIND       PRES   REMARKS
LA CROSSE      CLOUDY    27  17  66 SW14      29.82R WCI  16
SPARTA         CLOUDY    25  18  73 W12G17    29.80R WCI  14
VIROQUA        CLOUDY    23  17  75 W17G32    29.79S WCI  10
BOSCOBEL       CLOUDY    28  17  63 W14G22    29.87R WCI  17
PRAIRIE DU CHI CLOUDY    28  17  65 W12G20    29.87R WCI  17
PLATTEVILLE    CLOUDY    27  20  76 W18G26    29.86R WCI  13
$$

WIZ056-057-062-063-064-067-068-070000-
SOUTH CENTRAL WISCONSIN

CITY           SKY/WX    TMP DP  RH WIND       PRES   REMARKS
REEDSBURG      CLOUDY    24  17  74 SW13G25   29.81R WCI  13
BARABOO/DELLS  CLOUDY    25  17  71 W14G25    29.80R WCI  13
LONE ROCK      CLOUDY    26  17  68 W16G26    29.85R WCI  14
MINERAL POINT  CLOUDY    28  21  74 W21G31    29.82S WCI  15
MADISON        PTCLDY    28  19  69 W9G20     29.80R WCI  19
MIDDLETON      NOT AVBL
WATERTOWN      CLEAR     29  23  75 SW13G21   29.77R WCI  19
MONROE         CLOUDY    28  23  80 W23       29.83R WCI  14
JANESVILLE     CLEAR     30  21  69 W15G23    29.83R WCI  19
$$

WIZ051-052-058>065-066-070>072-070000-
SOUTHEAST WISCONSIN

CITY           SKY/WX    TMP DP  RH WIND       PRES   REMARKS
MILWAUKEE      PTCLDY    35  23  61 W14G24    29.77R WCI  26
WAUKESHA       CLEAR     30  21  69 W15G22    29.77R WCI  19
MILWAUKEE/TIMM PTCLDY    32  21  64 W13G23    29.77R WCI  22
RACINE         CLEAR     33  25  72 W9        29.80R WCI  25
BURLINGTON     CLEAR     31  24  75 SW12G17   29.80R WCI  22
KENOSHA        CLEAR     33  26  75 W10       29.80R WCI  25
FOND DU LAC    CLEAR     32  21  64 SW10      29.73R WCI  24
SHEBOYGAN      PTCLDY    33  25  72 W12G20    29.73R WCI  24
WEST BEND      CLEAR     32  25  74 W13G23    29.74R WCI  22
JUNEAU         CLEAR     29  19  68 SW20G26   29.77R WCI  16
$$

LSZ147-162-070000-
LAKE SUPERIOR

STATION/POSITION TIME  TEMP    WIND        PRES    WAVE
                       AIR SEA DIR/SP/G            HT/PER
                 (UTC) (F)     (DEG/KT/KT) (MB)    (FT/S)
DEVILS ISLAND    2300   25     210/ 16/ 21 1002.1R
PORT WING        2230   24     200/ 12/ 21 1001.4F
SAXON HARBOR     2230   25     200/ 15/ 23 1002.4S
$$

LMZ867-665-643>646-070000-
LAKE MICHIGAN

STATION/POSITION TIME  TEMP    WIND        PRES    WAVE
                       AIR SEA DIR/SP/G            HT/PER
                 (UTC) (F)     (DEG/KT/KT) (MB)    (FT/S)
CHAMBERS ISLAND  2240   36     210/  8/ 17 1003.7R
NORTHPORT PIER   2240   37     200/  2/  5 1004.1S
SISTER BAY       2238   37     260/ 19/ 21   N/A
ALGOMA LAKESHORE 2236          260/ 12/ 14   N/A
KEWAUNEE LAKESHO 2248   35     250/  8/ 14 1005.0R
SHEBOYGAN LAKESH 2300   35     260/ 13/ 17 1006.9R
PORT WASHINGTON  2240   35     270/  6/ 12 1008.5R
MILWAUKEE LAKESH 2250   35     270/ 16/ 20   N/A
KENOSHA   LAKESH 2300   35     270/  9/ 19 1009.5
$$

TC  - TEMPERATURE IN CELSIUS
VSB - VISIBILITY IN STATUTE MILES
WCI - WIND CHILL INDEX
HX  - HEAT INDEX





USA.gov is the U.S. government's official web portal to all federal, state and local government web resources and services.